Location: Kellogg
(38.0159°N, 90.0546°W)
Time: 02:33:56
(UTC+00:00)

Transit 2A - Pass Details

Date: 17 September 2024
Orbit: 590 x 960 km, 66.7° (Epoch: 09 October)

Event Time Altitude Azimuth Distance (km) Brightness Sun altitude
Rises 01:42:42 0° 259° (W) 3,468 10.4 -19.6°
Reaches altitude 10° 01:46:08 10° 279° (W) 2,592 9.9 -20.2°
Maximum altitude 01:49:55 17° 318° (NW) 2,194 9.1 -20.9°
Drops below altitude 10° 01:53:50 10° 357° (N) 2,684 9.1 -21.6°
Sets 01:57:30 0° 17° (NNE) 3,648 9.6 -22.3°
